TV
NORAD ID: 26719
Int'l Code: 2001-011A
Perigee: 35,778.6 km
Apogee: 35,809.3 km
Inclination: 0.1 °
Period: 1,436.1 minutes
Semi major axis: 42164 km
Launch date: March 8, 2001
Source: European Telecommunications Satellite Organization (EUTE)
Comments: Twenty-four channels; Western and Central Europe as far west as Canary Islands.
Two Line Element Set (TLE):
1 26719U 01011A 13144.98380944 .00000146 00000-0 00000+0 0 4261
2 26719 000.0658 000.6819 0003646 083.0299 181.6753 01.00271114 44747
Source: AFSPC
NASA's NSSDC Master Catalog entry for EUTE 28A (EB 1)